Moses Lake, WA

3:07 AM PDT on May 28, 2017 (GMT -0700)
Grant County International

Weather History for KMWH - March, 2014

Change the Weather History Date:

Sunday, March 16, 2014

  Actual Average Record
Temperature  
Mean Temperature 56 °F 44 °F  
Max Temperature 65 °F 56 °F 68 °F (2004)
Min Temperature 46 °F 32 °F 25 °F (1982)
Degree Days  
Heating Degree Days 9 21  
Month to date heating degree days 332 375  
Since 1 July heating degree days 4843 4880  
Cooling Degree Days 0 0  
Month to date cooling degree days 0 0  
Year to date cooling degree days 0 0  
Growing Degree Days 5 (Base 50)    
Moisture  
Dew Point 38 °F    
Average Humidity 56    
Maximum Humidity 71    
Minimum Humidity 40    
Precipitation  
Precipitation 0.00 in 0.03 in 0.20 in (1981)
Month to date precipitation 0.49 0.34  
Year to date precipitation 1.63 2.28  
Sea Level Pressure  
Sea Level Pressure 29.96 in    
Wind  
Wind Speed 11 mph (SW)    
Max Wind Speed 22 mph    
Max Gust Speed 27 mph    
Visibility 10 miles    
Events      
T = Trace of Precipitation, MM = Missing Value Source: NWS Daily Summary

Daily Weather History Graph

Daily Weather History Graph

Search for Another Location

Airport or City:

Trip Planner

Search our weather history database for the weather conditions in past years. The results will help you decide how hot, cold, wet, or windy it might be!

Date:

Astronomy

Mar. 16, 2014 Rise Set
Actual Time 7:08 AM PDT 7:04 PM PDT
Civil Twilight 6:37 AM PDT 7:34 PM PDT
Nautical Twilight 6:02 AM PDT 8:10 PM PDT
Astronomical Twilight 5:25 AM PDT 8:47 PM PDT
Moon 7:30 PM PDT (3/16) 6:52 AM PDT (3/16)
Length of Visible Light 12h 57m
Length of Day
11h 56m
Full, 100% of the Moon is Illuminated
Mar 16
Full
Mar 23
Last Quarter
Mar 30
New
Apr 7
First Quarter
Apr 15
Full

Hourly Weather History & Observations

Time (PDT) Temp. Windchill Dew Point Humidity Pressure Visibility Wind Dir Wind Speed Gust Speed Precip Events Conditions
12:52 AM 50.0 °F - 34.0 °F 54% 30.14 in 10.0 mi South 5.8 mph - N/A   Clear
1:52 AM 52.0 °F - 36.0 °F 54% 30.13 in 10.0 mi SW 8.1 mph - N/A   Scattered Clouds
2:52 AM 52.0 °F - 37.0 °F 57% 30.12 in 10.0 mi SW 12.7 mph - N/A   Mostly Cloudy
3:52 AM 51.1 °F - 36.0 °F 56% 30.10 in 10.0 mi SW 10.4 mph - N/A   Mostly Cloudy
4:52 AM 50.0 °F - 36.0 °F 59% 30.09 in 10.0 mi SSW 8.1 mph - N/A   Clear
5:52 AM 50.0 °F - 37.9 °F 63% 30.09 in 10.0 mi SW 10.4 mph - N/A   Clear
6:52 AM 50.0 °F - 37.9 °F 63% 30.08 in 10.0 mi SSW 9.2 mph - N/A   Clear
7:52 AM 48.0 °F - 37.9 °F 68% 30.09 in 10.0 mi SW 6.9 mph - N/A   Clear
8:52 AM 53.1 °F - 39.9 °F 61% 30.09 in 10.0 mi South 10.4 mph - N/A   Clear
9:52 AM 55.9 °F - 42.1 °F 60% 30.07 in 10.0 mi SW 9.2 mph - N/A   Clear
10:52 AM 59.0 °F - 39.9 °F 49% 30.06 in 10.0 mi SSW 9.2 mph - N/A   Clear
11:52 AM 62.1 °F - 39.0 °F 43% 30.04 in 10.0 mi SW 18.4 mph - N/A   Clear
12:52 PM 63.0 °F - 39.9 °F 43% 30.01 in 10.0 mi SSW 11.5 mph - N/A   Mostly Cloudy
1:52 PM 64.0 °F - 39.9 °F 41% 29.96 in 10.0 mi WSW 15.0 mph - N/A   Clear
2:52 PM 64.0 °F - 39.9 °F 41% 29.92 in 10.0 mi SSW 9.2 mph - N/A   Overcast
3:52 PM 63.0 °F - 39.9 °F 43% 29.89 in 10.0 mi SSW 12.7 mph - N/A   Overcast
4:34 PM 63.0 °F - 39.9 °F 43% 29.86 in 10.0 mi WSW 8.1 mph - N/A   Overcast
4:52 PM 61.0 °F - 39.0 °F 44% 29.86 in 10.0 mi NW 11.5 mph 17.3 mph N/A   Overcast
5:52 PM 55.9 °F - 34.0 °F 44% 29.84 in 10.0 mi NNW 15.0 mph - N/A   Overcast
6:52 PM 54.0 °F - 34.0 °F 47% 29.82 in 10.0 mi NNW 8.1 mph - N/A   Overcast
7:52 PM 53.1 °F - 34.0 °F 48% 29.81 in 10.0 mi WNW 12.7 mph - N/A   Overcast
8:52 PM 51.1 °F - 36.0 °F 56% 29.79 in 10.0 mi West 6.9 mph - N/A   Overcast
9:52 PM 48.9 °F - 37.0 °F 64% 29.76 in 10.0 mi WSW 10.4 mph - N/A   Mostly Cloudy
10:52 PM 46.9 °F - 37.0 °F 68% 29.75 in 10.0 mi WSW 9.2 mph - N/A   Scattered Clouds
11:52 PM 46.0 °F 41.4 °F 34.0 °F 63% 29.73 in 10.0 mi West 9.2 mph - N/A   Overcast